Weather History for Hattiesburg, MS

Change the Weather History Date:

Wednesday, April 10, 2013

  Actual Average Record
Temperature  
Mean Temperature 74 °F 64 °F  
Max Temperature 82 °F 77 °F 89 °F (1963)
Min Temperature 66 °F 51 °F 34 °F (1961)
Degree Days  
Heating Degree Days 0 4  
Month to date heating degree days 41 44  
Since 1 July heating degree days 1783 1939  
Cooling Degree Days 9 2  
Month to date cooling degree days 22 20  
Year to date cooling degree days 59 68  
Growing Degree Days 23 (Base 50)    
Moisture  
Dew Point 65 °F    
Average Humidity 76    
Maximum Humidity 93    
Minimum Humidity 58    
Precipitation  
Precipitation 0.00 in 0.17 in 2.00 in (1969)
Month to date precipitation 0.69 1.83  
Year to date precipitation 21.27 18.46  
Sea Level Pressure  
Sea Level Pressure 29.94 in    
Wind  
Wind Speed 10 mph (SSE)    
Max Wind Speed 24 mph    
Max Gust Speed 30 mph    
Visibility 10 miles    
Events      
T = Trace of Precipitation, MM = Missing Value Source: NWS Daily Summary

Daily Weather History Graph

Daily Weather History Graph

Search for Another Location

Airport:

Trip Planner

Search our weather history database for the weather conditions in past years. The results will help you decide how hot, cold, wet, or windy it might be!

Date:

Astronomy

Apr. 10, 2013 Rise Set
Actual Time 6:34 AM CDT 7:22 PM CDT
Civil Twilight 6:09 AM CDT 7:47 PM CDT
Nautical Twilight 5:40 AM CDT 8:16 PM CDT
Astronomical Twilight 5:10 AM CDT 8:46 PM CDT
Moon 6:32 AM CDT (4/10) 7:54 PM CDT (4/10)
Length of Visible Light 13h 37m
Length of Day
12h 47m
New Moon, 0% of the Moon is Illuminated
Apr 10
New Moon
Apr 18
First Quarter
Apr 25
Full
May 2
Last Quarter
May 9
New

Hourly Weather History & Observations

Time (CDT) Temp. Heat Index Dew Point Humidity Pressure Visibility Wind Dir Wind Speed Gust Speed Precip Events Conditions
12:36 AM 69.8 °F - 66.2 °F 88% 29.99 in 10.0 mi SSE 16.1 mph - N/A   Mostly Cloudy
12:53 AM 70.0 °F - 66.0 °F 87% 29.98 in 10.0 mi SSE 15.0 mph 21.9 mph N/A   Mostly Cloudy
1:53 AM 69.1 °F - 64.9 °F 87% 29.99 in 10.0 mi SSE 5.8 mph - N/A   Mostly Cloudy
2:48 AM 66.2 °F - 64.4 °F 94% 29.97 in 10.0 mi SSE 4.6 mph - N/A   Scattered Clouds
2:53 AM 66.9 °F - 64.9 °F 93% 29.96 in 10.0 mi SSE 4.6 mph - N/A   Partly Cloudy
3:53 AM 66.9 °F - 64.9 °F 93% 29.95 in 10.0 mi ESE 3.5 mph - N/A   Partly Cloudy
4:16 AM 66.2 °F - 64.4 °F 94% 29.96 in 10.0 mi SE 3.5 mph - N/A   Mostly Cloudy
4:53 AM 66.9 °F - 64.9 °F 93% 29.95 in 10.0 mi ESE 3.5 mph - N/A   Overcast
5:53 AM 68.0 °F - 66.0 °F 93% 29.96 in 10.0 mi SE 6.9 mph - N/A   Overcast
6:53 AM 69.1 °F - 66.0 °F 90% 29.95 in 10.0 mi SE 13.8 mph - N/A   Overcast
7:53 AM 70.0 °F - 66.0 °F 87% 29.95 in 10.0 mi SSE 11.5 mph - N/A   Overcast
8:53 AM 73.0 °F - 66.0 °F 79% 29.96 in 10.0 mi SSE 12.7 mph - N/A   Mostly Cloudy
9:53 AM 75.9 °F - 66.0 °F 71% 29.96 in 10.0 mi SSE 18.4 mph 25.3 mph N/A   Mostly Cloudy
10:11 AM 75.2 °F - 66.2 °F 73% 29.98 in 10.0 mi SSE 20.7 mph 26.5 mph N/A   Scattered Clouds
10:53 AM 78.1 °F - 66.0 °F 66% 29.98 in 10.0 mi SSE 13.8 mph 29.9 mph N/A   Mostly Cloudy
11:53 AM 78.1 °F - 64.9 °F 64% 29.99 in 10.0 mi South 11.5 mph 23.0 mph N/A   Overcast
12:53 PM 79.0 °F - 64.9 °F 62% 29.98 in 10.0 mi SSE 17.3 mph 21.9 mph N/A   Mostly Cloudy
1:53 PM 79.0 °F - 66.0 °F 64% 29.97 in 10.0 mi SSE 11.5 mph - N/A   Mostly Cloudy
2:53 PM 79.0 °F - 64.9 °F 62% 29.96 in 10.0 mi South 16.1 mph - N/A   Mostly Cloudy
3:53 PM 79.0 °F - 64.9 °F 62% 29.92 in 10.0 mi SSE 13.8 mph - N/A   Mostly Cloudy
4:53 PM 80.1 °F 81.7 °F 64.0 °F 58% 29.90 in 10.0 mi SSE 15.0 mph - N/A   Overcast
5:53 PM 78.1 °F - 64.0 °F 62% 29.89 in 10.0 mi South 8.1 mph - N/A   Overcast
6:53 PM 77.0 °F - 63.0 °F 62% 29.89 in 10.0 mi South 8.1 mph - N/A   Overcast
7:53 PM 75.0 °F - 64.0 °F 69% 29.89 in 10.0 mi South 4.6 mph - N/A   Overcast
8:53 PM 73.0 °F - 64.0 °F 73% 29.89 in 10.0 mi South 10.4 mph - N/A   Mostly Cloudy
9:53 PM 72.0 °F - 64.9 °F 78% 29.89 in 10.0 mi SSE 10.4 mph - N/A   Clear
10:53 PM 70.0 °F - 64.9 °F 84% 29.88 in 10.0 mi SSE 8.1 mph - N/A   Clear
11:53 PM 69.1 °F - 66.0 °F 90% 29.87 in 10.0 mi SSE 5.8 mph - N/A   Clear